Starlink 31501

operational
NORAD ID: 59359 Int'l Des: 2024-060 Owner: SPXS Country: US Constellation: starlink
LEOCIRCULAR

About Starlink 31501

Description loading...

Live Position

Loading 3D Globe...

Upcoming Passes

Altitude History

Altitude vs Time

uPlot chart will show altitude changes over time

Two-Line Element Set

1 59359U 24060M 25306.14421905 .00001539 00000-0 65448-4 0 9994
2 59359 43.0048 260.4089 0001498 243.1354 116.9344 15.27568071 90554
Epoch: Nov 2, 2025 • Age: 21 hours

Current Status

Altitude 482.1 km
Velocity 7.63 km/s
Sub-Earth Point 13.96°N, 9.2°E
Launch Date Mar 31, 2024
Age 1.5 years
Type internet

Technical Details

Classification Payload
Mass 730.00 kg
Dry Mass 700.00 kg
Total Mass 730.00 kg
Length 0.30 m
Diameter 4.10 m
Span 29.00 m
Shape Box + pan
Manufacturer SPXS
Bus Type Starlink V2M
Phase Status In Orbit
Owner/State SPXS/US

Large Constellations

Loading constellations...